Regional Weather Roundup
Issued by NWS

Home | Current Version | Previous Version | Text Only | Print | Product List | Glossary Off
Versions: 1 2 3 4 5 6 7 8 9 10 11 12 13 14 15 16 17 18 19 20 21 22 23 24 25 26 27 28 29 30 31 32 33 34 35 36 37 38 39 40 41 42 43 44 45 46 47 48 49 50

000
ASUS43 KMPX 212101
RWRMN
WEATHER ROUNDUP FOR MINNESOTA
NATIONAL WEATHER SERVICE TWIN CITIES/CHANHASSEN MN
400 PM CDT SUN SEP 21 2014


NOTE: "FAIR" INDICATES FEW OR NO CLOUDS BELOW 12,000 FEET WITH NO
SIGNIFICANT WEATHER AND/OR OBSTRUCTIONS TO VISIBILITY. N/A MEANS
CURRENT SKY AND/OR WEATHER CONDITIONS ARE NOT AVAILABLE.

MNZ060>063-068>070-212200-
   Twin Cities Metro

CITY           SKY/WX    TMP DP  RH WIND       PRES   REMARKS
TWIN CITIES    MOSUNNY   66  45  46 NW16      30.14S
ST PAUL        MOSUNNY   66  46  48 NW14G23   30.14S
CRYSTAL        MOSUNNY   68  45  43 NW13      30.14S
LAKEVILLE      SUNNY     64  46  52 NW13G18   30.14S
EDEN PRAIRIE   MOSUNNY   67  48  50 N9G20     30.14S
SOUTH ST PAUL  SUNNY     66  44  44 N9G17     30.13S
LAKE ELMO      FAIR      64  46  52 N8G16     30.15R
$$
MNZ001>005-007-008-013>017-022>024-027-028-212200-
   Northwest Minnesota

CITY           SKY/WX    TMP DP  RH WIND       PRES   REMARKS
BEMIDJI        CLOUDY    60  49  68 W13       30.19R
HALLOCK        MOSUNNY   64  50  59 W7        30.19F
ROSEAU         PTSUNNY   61  52  72 N8        30.19S
WARROAD        CLOUDY    57  52  82 W9        30.19R
THIEF RVR FALL CLOUDY    61  48  63 W7        30.21S
CROOKSTON      PTSUNNY   61  52  72 NW6       30.22F
FOSSTON        CLOUDY    57  50  77 W9        30.22S
DETROIT LAKES  CLOUDY    59  50  72 NW12G17   30.24R
MOORHEAD       MOSUNNY   64  54  68 N8        30.23S
PARK RAPIDS    CLOUDY    60  48  64 NW12      30.19S
MAHNOMEN       CLOUDY    57  49  75 W10       30.22S
$$
MNZ006-009>011-018-025>026-212200-
   North Central Minnesota

CITY           SKY/WX    TMP DP  RH WIND       PRES   REMARKS
BAUDETTE       SUNNY     63  48  58 NW9       30.17S
FLAG ISLAND    CLOUDY    61  50  67 NW7       30.15S
INTL FALLS     SUNNY     61  45  55 NW8       30.14F
WASKISH        MOSUNNY   61  54  77 CALM      30.17F
BIG FORK       MOSUNNY   63  46  55 NW5       30.16F
LONGVILLE      MOSUNNY   63  46  55 NW7       30.17S
GRAND RAPIDS   MOSUNNY   61  45  55 NW10      30.16S
CRANE LAKE     SUNNY     57  43  58 NW3       30.15S
ORR            SUNNY     63  37  39 NW8       30.12S
COOK           SUNNY     61  43  51 NW8       30.15S
WALKER         MOCLDY    62  46  55 NW5       30.17S
$$
MNZ012-019>021-037-212200-
   Northeast Minnesota

CITY           SKY/WX    TMP DP  RH WIND       PRES   REMARKS
DULUTH         SUNNY     63  37  38 N13       30.12R
ELY            SUNNY     59  41  51 W9        30.12S
HIBBING        SUNNY     64  41  42 N13G20    30.14S
EVELETH        SUNNY     63  41  45 NW12      30.15R
DULUTH HARBOR  SUNNY     61  46  59 CALM      30.12S
TWO HARBORS    SUNNY     63  43  48 NW5       30.09S
SILVER BAY     SUNNY     61  45  55 N8        30.08S
GRAND MARAIS     N/A     51  46  83 SW12      30.08S
G MARAIS ARPRT SUNNY     55  36  47 NW13      30.09S
$$
MNZ029>031-032-039>041-046>048-054>057-064-212200-
   West Central Minnesota

CITY           SKY/WX    TMP DP  RH WIND       PRES   REMARKS
FERGUS FALLS   SUNNY     63  46  55 N8G16     30.22F
WHEATON        PTSUNNY   64  46  52 N9        30.23S
MORRIS         SUNNY     64  50  59 NW12G23   30.21S
ALEXANDRIA     CLOUDY    59  48  67 N10       30.22S
ELBOW LAKE     FAIR      61  49  65 NW10      30.22R
WADENA         CLOUDY    57  48  72 NW10      30.20S
GLENWOOD       PTSUNNY   61  48  63 NW14      30.22R
APPLETON       MOSUNNY   68  46  45 NW13      30.20F
BENSON         PTSUNNY   64  50  59 N9        30.21S
ORTONVILLE     MOSUNNY   66  48  52 N9        30.21S
MADISON        MOSUNNY   68  50  52 NW13G20   30.21F
WILLMAR        FAIR      66  48  52 N12G17    30.21S
$$
MNZ033>034-036-042>043-049>051-058-059-212200-
   Central Minnesota

CITY           SKY/WX    TMP DP  RH WIND       PRES   REMARKS
ST CLOUD       MOSUNNY   69  47  45 NW13      30.15F
SAUK CENTRE    CLOUDY    60  50  68 NW14      30.20S
PAYNESVILLE    PTSUNNY   61  49  65 W12       30.19S
AITKIN         SUNNY     66  46  48 NW8       30.15S
PINE RIVER     MOSUNNY   63  48  59 N7        30.20S
BRAINERD       SUNNY     63  46  54 N9        30.18S
STAPLES        CLOUDY    63  48  59 NW10      30.19R
LONG PRAIRIE   PTSUNNY   61  50  67 W13       30.20S
LITTLE FALLS   MOSUNNY   63  45  51 NW7       30.17S
LITCHFIELD     MOSUNNY   66  52  59 N14       30.19S
BUFFALO        MOSUNNY   66  47  50 NW8       30.17R
MAPLE LAKE     MOSUNNY   66  51  57 W13       30.17S
$$
MNZ037-044-045-052-053-212200-
   East Central Minnesota

CITY           SKY/WX    TMP DP  RH WIND       PRES   REMARKS
PRINCETON      SUNNY     68  46  45 NW8G17    30.15S
MORA           SUNNY     63  46  55 NW9G16    30.16S
CAMBRIDGE      SUNNY     66  48  52 NW10G16   30.13S
RUSH CITY      SUNNY     64  45  50 NW8       30.14S
MOOSE LAKE     SUNNY     63  45  51 NW8       30.12R
HINCKLEY       FAIR      64  46  52 NW8G16    30.14S
CLOQUET        SUNNY     63  39  42 NW10G17   30.13R
MCGREGOR       SUNNY     63  45  51 NW8       30.16R
$$
MNZ071>073-080-081-089-090-097-098-212200-
   Southwest Minnesota

CITY           SKY/WX    TMP DP  RH WIND       PRES   REMARKS
MONTEVIDEO     MOSUNNY   70  50  49 NE14G20   30.22S
GRANITE FALLS  PTSUNNY   66  49  54 N14G20    30.22F
CANBY          PTSUNNY   67  49  52 N12G18    30.23R
MARSHALL       PTSUNNY   66  46  48 N16       30.20S
REDWOOD FALLS  CLOUDY    65  50  58 N10       30.19F
OLIVIA         CLOUDY    64  50  59 N13G18    30.19S
PIPESTONE      MOSUNNY   68  45  42 N8G20     30.22S
WINDOM         MOSUNNY   64  46  52 N17G24    30.21S
WORTHINGTON    MOSUNNY   64  45  48 N17       30.22S
JACKSON        MOSUNNY   64  45  48 VRB10G23  30.21S
TRACY          MOSUNNY   65  48  53 N10       30.22S
SLAYTON        MOSUNNY   65  45  48 N15       30.23S
$$
MNZ065>067-074>077-082>085-091>093-212200-
   South Central Minnesota

CITY           SKY/WX    TMP DP  RH WIND       PRES   REMARKS
MANKATO        CLOUDY    64  46  52 NW18      30.17S
NEW ULM        PTSUNNY   63  50  63 N13G20    30.19S
ST JAMES       CLOUDY    64  48  55 NW9G20    30.21R
FAIRMONT       CLOUDY    64  46  52 NW13G20   30.19R
GLENCOE        PTSUNNY   65  48  54 NW12      30.17S
FARIBAULT      PTSUNNY   68  43  40 N12       30.15F
OWATONNA       MOSUNNY   64  48  55 NW15G21   30.15S
WASECA         PTSUNNY   63  43  48 NW10G18   30.17S
ALBERT LEA     PTSUNNY   64  46  52 N12       30.16R
$$
MNZ078>079-086>088-094>096-212200-
   Southeast Minnesota

CITY           SKY/WX    TMP DP  RH WIND       PRES   REMARKS
ROCHESTER      MOSUNNY   63  46  54 N16G24    30.14R
RED WING       PTSUNNY   66  43  42 NW14G23   30.12R
STANTON        MOSUNNY   65  47  51 N14       30.13S
DODGE CENTER   PTSUNNY   63  48  59 N16G22    30.14R
WINONA         MOSUNNY   66  46  48 N12G21    30.10R
AUSTIN         PTSUNNY   63  48  59 N12G21    30.14R
PRESTON        PTSUNNY   62  52  69 NW16G23   30.13R
$$
ABBREVIATIONS USED IN REMARKS
   TC - TEMPERATURES IN CELSIUS
  WCI - WIND CHILL INDEX
   HX - HEAT INDEX
  VSB - VISIBILITY
$$


USA.gov is the U.S. government's official web portal to all federal, state and local government web resources and services.